Theta_e
309 310 310 311 313 312 312 313 313 314 317 319 320 321 324 327 330 330 330 330 331 331 333 332 331 330 328 330 330 330 330 330 325 332 329 331 331 332 333 333 334 333 330
307 308 309 309 309 310 311 312 313 314 315 317 320 323 324 326 327 328 329 332 332 331 332 333 332 333 329 330 331 330 330 331 329 327 329 328 329 330 331 331 331 330 328
307 306 305 306 306 307 308 309 311 312 313 316 319 320 322 324 325 327 329 331 332 333 333 334 334 335 332 330 330 331 335 334 333 329 327 326 327 327 326 327 328 327 325
307 306 305 306 306 307 309 311 313 315 315 316 317 319 320 321 323 324 324 326 327 330 332 335 336 338 337 335 335 336 333 331 328 328 325 325 325 325 325 325 324 327 326
304 306 307 308 307 308 309 311 313 315 316 318 318 319 320 321 321 323 323 324 324 324 327 331 335 335 331 334 341 340 332 332 328 326 323 322 321 320 324 323 322 324 324
305 304 305 305 306 307 309 312 313 314 315 316 317 317 317 318 310 308 315 320 322 323 323 325 329 327 329 320 319 320 330 331 329 326 324 322 322 324 322 321 322 321 321
304 305 307 307 308 309 310 310 310 310 310 310 311 313 314 315 306 304 306 316 318 319 321 323 325 329 326 335 323 314 315 313 320 329 326 326 325 324 322 320 322 324 323
302 303 305 306 307 308 307 307 307 307 307 308 308 310 311 312 305 303 304 315 316 318 321 323 324 326 329 331 336 332 329 327 326 329 332 329 331 327 327 326 326 324 324
301 302 303 305 306 306 306 306 305 305 305 306 308 309 310 311 303 301 304 315 317 320 323 325 326 328 317 306 331 331 328 324 314 309 311 308 307 308 317 326 323 323 322
300 301 302 304 304 305 306 306 305 306 306 307 308 308 307 309 302 301 304 313 317 320 323 325 309 317 307 301 327 330 324 324 321 320 319 313 311 310 307 331 326 323 321
301 301 301 303 303 305 306 306 305 304 306 306 307 307 308 309 310 301 301 311 316 319 321 323 327 306 302 298 306 329 325 322 317 324 325 323 320 319 323 327 329 328 323
299 300 300 302 303 304 305 305 305 304 304 304 304 305 308 311 302 302 299 298 308 317 319 323 326 304 298 297 306 304 301 312 323 321 322 322 321 323 325 327 327 328 328
299 299 300 302 303 304 304 304 303 303 303 303 304 305 306 310 312 300 298 298 298 306 314 314 302 298 296 302 299 299 304 322 320 321 322 322 324 325 326 326 327 327 328
298 298 299 300 301 303 304 303 303 302 303 304 305 305 307 308 311 314 313 309 302 305 307 312 308 304 304 309 307 309 322 322 322 323 322 323 323 323 324 325 325 325 325
296 297 298 300 300 301 302 303 304 305 304 305 305 307 306 307 310 308 310 317 318 313 312 312 314 315 313 316 317 317 321 321 323 322 322 322 322 323 323 324 323 323 323
296 297 298 300 301 301 302 303 296 299 298 297 298 305 310 303 300 297 296 296 296 297 313 315 315 319 319 318 317 318 321 318 323 324 324 324 322 321 322 321 321 323 321
296 298 298 298 299 300 301 301 301 301 295 294 294 294 294 298 295 295 294 293 293 296 317 318 317 320 321 320 320 320 320 323 324 324 325 324 320 322 320 320 321 321 319
298 297 300 301 302 303 304 304 305 304 304 305 297 297 293 293 293 292 293 294 307 301 316 320 319 319 321 320 321 321 322 321 323 324 324 321 322 321 320 320 319 319 319
300 300 301 302 303 304 306 306 306 306 306 305 306 297 296 292 292 292 292 308 312 312 316 319 319 318 320 320 320 320 320 320 321 322 321 320 321 319 317 318 315 305 309
301 298 300 304 304 305 305 305 306 305 305 305 305 307 305 299 301 301 302 308 315 318 318 318 318 319 320 321 322 322 319 320 321 322 322 323 323 321 317 315 316 318 319
303 302 299 305 305 304 305 305 304 304 306 306 307 306 295 307 308 307 307 313 319 318 318 319 319 320 321 322 322 322 322 322 323 323 322 322 320 317 317 318 319 319 319
305 305 304 304 305 306 307 306 306 308 309 309 309 305 289 306 309 310 314 318 319 319 319 319 321 321 322 322 323 323 323 323 322 322 322 320 319 321 321 320 319 318 316
304 305 306 305 306 303 307 307 309 310 310 311 310 309 304 312 316 316 315 315 317 316 319 321 320 321 322 323 324 324 320 321 322 324 320 320 317 317 317 316 313 309 307
305 306 304 305 307 306 307 310 311 304 310 309 310 310 312 312 311 310 309 309 312 315 318 320 321 320 318 319 318 319 320 321 322 320 318 313 307 309 311 308 301 297 295
312 311 311 310 310 310 311 311 310 310 309 310 310 308 308 306 304 304 306 310 310 310 311 313 314 315 315 314 315 313 297 295 311 302 310 307 305 303 302 301 298 296 295
308 308 308 308 307 307 306 306 306 305 304 304 304 303 303 302 302 304 306 305 304 304 303 303 304 305 305 306 307 293 290 291 296 293 304 301 296 295 296 295 294 293 292
Wind_Speed
8 7 8 7 6 6 6 6 6 4 5 5 4 4 4 4 4 3 3 3 6 5 5 6 9 7 7 6 6 6 7 8 10 6 3 3 1 2 3 3 3 1 1
3 4 9 7 7 7 6 7 6 6 5 5 4 4 3 4 4 4 4 4 6 5 6 6 9 7 10 9 7 9 9 10 8 14 3 2 1 2 2 2 2 2 1
2 1 3 3 5 7 7 7 7 6 6 5 5 4 4 4 4 4 4 5 5 6 7 7 10 8 10 8 7 8 10 8 9 7 3 1 1 1 2 1 2 1 1
6 7 7 7 8 7 6 6 6 7 7 6 6 5 5 4 5 5 4 4 5 5 7 7 10 10 11 10 8 12 7 8 6 5 3 3 2 2 1 2 3 2 2
5 6 10 10 7 7 7 6 5 5 5 6 5 3 3 3 3 4 4 5 5 7 7 8 9 12 14 14 7 7 6 5 5 6 3 4 3 3 4 3 2 1 3
3 5 5 4 6 7 6 7 7 6 5 5 5 4 3 2 5 8 6 5 6 7 9 9 10 11 12 17 17 17 12 9 8 7 6 5 5 4 4 4 3 3 2
5 4 3 4 5 6 6 5 6 6 5 5 5 5 5 4 7 9 9 5 7 7 9 8 9 7 9 11 13 14 12 11 8 12 10 7 6 8 7 5 5 3 3
8 7 4 5 6 6 6 6 6 4 6 5 6 6 6 5 9 10 12 6 6 9 10 9 9 11 11 11 9 8 8 8 7 7 8 7 5 8 9 6 6 5 3
13 12 8 8 8 8 10 9 8 6 6 7 5 7 5 5 10 11 10 7 7 9 10 8 8 11 13 12 10 10 7 5 3 2 3 6 12 12 9 7 5 5 2
17 14 11 12 13 14 13 11 7 6 7 5 5 6 8 7 11 13 12 6 7 7 9 7 11 13 12 8 10 8 7 5 7 6 4 4 6 6 11 5 7 7 4
16 14 14 14 16 16 15 12 9 8 6 6 6 6 7 7 8 14 14 6 7 8 8 5 6 12 11 11 13 10 8 10 5 5 5 6 4 6 5 4 6 6 5
19 18 17 16 13 13 16 12 11 8 7 7 7 7 5 6 11 12 14 12 10 7 10 5 6 11 8 9 9 8 12 11 7 5 5 5 5 5 5 5 6 5 1
19 19 16 15 16 14 13 13 10 9 10 9 8 9 7 6 7 13 15 13 11 6 10 7 9 7 8 5 4 8 11 8 7 5 6 5 4 5 7 6 6 5 2
22 22 16 16 12 10 9 10 10 9 10 9 8 8 7 7 8 8 7 7 11 8 13 5 6 7 6 6 6 7 5 6 7 6 5 4 5 5 6 4 4 4 3
17 16 17 14 16 16 14 11 10 10 12 9 9 9 8 8 10 12 11 8 6 8 4 3 4 5 7 5 4 5 4 6 6 5 6 6 6 6 5 4 4 3 3
17 15 12 11 8 8 7 5 6 9 15 14 14 12 9 13 13 11 12 9 8 11 4 4 6 8 7 6 6 5 5 7 6 6 7 7 7 7 6 4 2 4 4
12 13 10 11 10 10 8 9 9 5 7 9 11 10 8 11 10 11 7 6 9 9 5 7 7 8 8 7 6 7 9 8 9 7 7 8 6 6 7 5 5 5 4
12 14 9 9 9 8 9 9 8 8 9 8 11 12 13 15 11 4 3 5 3 5 7 7 7 8 8 7 8 10 7 7 7 6 7 6 7 7 6 7 5 5 5
7 8 6 6 7 7 7 7 8 7 6 4 4 5 11 11 9 8 10 8 8 7 8 6 7 8 7 8 8 8 9 8 7 7 6 6 6 5 5 5 4 6 6
9 11 7 8 7 6 6 6 6 6 7 8 8 9 5 6 6 7 7 8 9 8 6 7 7 7 7 8 8 8 7 8 7 8 7 7 7 6 6 6 5 7 5
3 5 6 4 6 7 7 7 7 8 7 9 8 8 8 8 8 9 9 10 9 8 7 7 7 8 8 8 9 9 9 8 8 8 7 7 6 6 5 5 6 5 6
5 6 7 7 6 6 8 8 9 8 7 7 7 5 5 5 7 8 8 7 7 7 6 7 7 8 8 9 9 8 8 8 6 7 8 6 6 7 6 6 6 6 6
5 6 6 7 7 7 8 9 8 9 8 7 6 4 6 7 7 7 7 6 7 7 7 7 8 8 8 7 7 8 8 7 8 8 8 7 7 6 6 7 6 7 8
11 12 12 9 11 11 9 10 10 9 8 6 4 1 1 5 6 8 7 6 7 7 7 7 8 11 8 7 5 5 6 6 7 8 11 9 8 8 8 9 7 9 10
8 8 7 6 7 8 9 8 8 8 7 7 7 5 3 6 6 7 8 7 7 7 8 8 6 10 10 11 9 9 9 10 10 9 9 11 12 11 10 10 11 11 13
9 9 7 7 8 9 9 8 8 8 7 7 8 7 6 7 6 9 7 8 8 8 10 7 8 12 11 9 12 12 12 13 12 12 11 11 11 9 10 13 16 11 12
Wind_Direction
176 171 172 178 171 160 180 184 190 188 195 209 194 186 188 198 192 186 214 222 233 243 235 231 246 235 235 221 210 214 217 214 242 266 250 236 223 156 123 115 120 112 77
336 276 185 169 165 177 198 205 186 205 196 196 187 195 213 214 188 199 220 219 227 249 252 231 249 238 239 230 212 228 224 218 219 246 227 229 210 241 126 137 101 75 55
203 223 277 168 178 205 206 203 194 200 200 187 180 204 217 227 240 241 226 237 235 242 258 261 268 242 250 236 207 235 234 227 216 240 231 192 171 202 122 120 131 152 75
201 180 214 210 201 210 216 214 199 186 176 171 177 190 200 211 217 224 221 242 257 260 258 257 261 253 252 243 214 228 204 190 192 204 182 216 182 170 127 177 208 202 216
224 218 208 214 197 184 184 194 186 211 176 156 147 182 202 185 224 233 253 259 259 267 265 263 260 256 250 252 245 236 216 191 180 193 189 211 174 178 193 159 198 168 220
164 243 245 200 181 180 183 188 179 183 176 156 165 177 208 233 231 240 225 237 244 252 270 273 267 258 258 252 251 245 211 201 195 194 190 216 181 195 153 156 165 185 187
294 258 250 203 210 187 175 184 200 194 177 186 186 186 213 227 247 263 256 248 251 249 246 258 271 268 257 258 247 246 248 244 201 196 189 194 168 187 146 165 193 176 157
260 260 232 224 212 201 191 197 205 201 204 197 208 212 216 223 230 248 263 263 250 254 251 251 259 271 270 262 258 249 230 206 207 213 207 175 177 155 168 185 169 134 105
247 250 240 229 230 212 205 206 207 196 203 200 192 202 206 229 235 251 264 264 254 254 253 248 253 266 267 256 248 254 234 181 111 176 85 152 143 142 152 142 147 150 116
253 249 240 231 231 233 236 217 190 197 215 213 220 203 208 220 221 238 251 249 250 254 258 249 238 250 266 238 224 221 193 176 198 141 118 91 103 155 177 174 151 150 112
247 243 239 234 232 231 230 228 215 200 203 205 221 211 214 216 231 236 247 248 242 248 251 258 257 251 246 227 210 184 192 143 163 129 131 111 142 166 179 140 153 140 142
244 242 237 236 233 229 223 219 216 198 206 225 223 237 230 228 229 243 250 214 239 242 252 246 255 253 227 213 215 183 145 133 133 126 132 149 169 160 158 146 148 123 142
237 234 234 238 235 225 216 207 201 186 201 211 214 226 234 227 238 234 245 227 215 228 252 245 283 226 160 156 215 182 159 128 123 150 170 179 168 149 135 119 100 105 140
229 229 225 222 225 214 199 193 193 188 196 206 207 221 228 233 233 240 231 223 219 216 248 249 216 184 187 148 139 203 132 120 162 169 168 145 129 154 144 132 118 146 165
233 232 224 222 222 224 229 219 206 200 188 192 209 214 212 228 235 226 220 208 203 224 169 161 178 178 178 176 164 157 114 135 167 152 156 151 152 154 138 139 112 153 167
215 212 204 208 197 191 187 189 213 185 189 201 199 197 216 225 228 219 213 220 221 184 183 199 197 198 184 178 162 150 158 176 168 163 156 156 157 154 148 128 139 170 152
207 188 198 205 211 208 209 214 219 216 206 216 217 210 227 249 233 221 210 233 238 189 222 204 191 190 193 175 170 168 184 173 162 160 157 159 145 152 140 163 163 156 141
189 197 190 183 181 183 183 189 193 199 206 219 218 216 209 223 231 234 270 175 233 245 213 210 178 178 183 173 168 178 158 133 159 156 157 145 154 154 157 165 166 149 129
161 176 173 179 184 180 175 180 196 200 203 198 192 204 215 212 203 192 190 225 232 213 211 183 171 162 167 167 160 160 153 156 158 154 150 148 142 136 126 139 123 131 125
177 165 174 165 157 154 164 182 197 210 223 229 227 226 172 142 185 200 200 207 219 206 173 166 163 144 162 148 143 144 135 140 147 149 149 146 149 150 140 140 147 148 140
139 169 171 168 165 178 189 201 205 213 214 220 218 217 187 195 202 200 197 200 197 168 156 159 148 147 146 132 139 142 141 147 146 135 138 144 144 141 134 141 138 123 127
184 165 181 195 195 200 191 194 204 204 216 209 230 217 170 217 194 186 187 175 156 145 137 139 144 143 139 143 142 137 139 139 132 136 143 142 134 129 131 127 123 125 128
222 192 200 201 206 210 197 206 207 212 201 198 205 186 189 218 177 158 134 123 119 125 126 136 139 132 136 133 137 140 138 146 151 143 133 126 118 124 128 123 116 113 107
212 214 217 228 224 215 217 202 201 172 171 159 155 168 139 110 108 112 100 106 128 109 125 136 132 136 126 119 109 98 114 127 124 127 123 119 116 120 118 111 98 100 100
54 63 69 66 74 82 95 112 113 118 124 137 141 110 99 92 96 90 83 100 107 110 99 96 98 112 116 117 111 114 113 103 110 109 109 110 110 108 110 110 114 108 110
45 51 52 55 66 77 83 93 100 104 111 116 112 105 105 86 95 99 110 108 101 90 87 81 86 94 94 95 114 113 109 106 105 103 112 109 105 103 106 109 111 110 112